Time,TemperatureF,DewpointF,PressureIn,WindDirection,WindDirectionDegrees,WindSpeedMPH,WindSpeedGustMPH,Humidity,HourlyPrecipIn,Conditions,Clouds,dailyrainin,SoftwareType,DateUTC
2013-03-04 00:01:00,41.0,39.0,12.71,North,9,1.0,5.0,94,-99.99,,,-99.99,,2013-03-04 08:01:00,
2013-03-04 00:11:00,40.0,38.0,12.70,NNW,348,3.0,5.0,94,-99.99,,,-99.99,,2013-03-04 08:11:00,
2013-03-04 00:21:00,41.0,40.0,12.78,North,2,3.0,3.0,96,-99.99,,,-99.99,,2013-03-04 08:21:00,
2013-03-04 00:31:00,41.0,40.0,12.80,NE,40,2.0,3.0,97,-99.99,,,-99.99,,2013-03-04 08:31:00,
2013-03-04 00:41:00,41.0,40.0,12.81,NE,52,2.0,4.0,97,-99.99,,,-99.99,,2013-03-04 08:41:00,
2013-03-04 00:52:00,42.0,41.0,12.81,NNE,30,1.0,2.0,96,-99.99,,,-99.99,,2013-03-04 08:52:00,
2013-03-04 01:01:00,42.0,41.0,12.81,NNE,30,1.0,2.0,96,-99.99,,,-99.99,,2013-03-04 09:01:00,
2013-03-04 01:11:00,44.0,41.0,12.56,West,277,1.0,3.0,88,-99.99,,,-99.99,,2013-03-04 09:11:00,
2013-03-04 01:21:00,46.0,40.0,12.18,WNW,283,2.0,3.0,78,-99.99,,,-99.99,,2013-03-04 09:21:00,
2013-03-04 01:31:00,46.0,39.0,12.11,West,272,2.0,3.0,77,-99.99,,,-99.99,,2013-03-04 09:31:00,
2013-03-04 01:41:00,46.0,39.0,12.10,West,278,2.0,3.0,77,-99.99,,,-99.99,,2013-03-04 09:41:00,
2013-03-04 01:51:00,45.0,39.0,12.18,NW,310,2.0,2.0,79,-99.99,,,-99.99,,2013-03-04 09:51:00,
2013-03-04 02:01:00,44.0,39.0,12.24,NW,311,1.0,3.0,81,-99.99,,,-99.99,,2013-03-04 10:01:00,
2013-03-04 02:11:00,45.0,39.0,12.22,NW,317,1.0,4.0,80,-99.99,,,-99.99,,2013-03-04 10:11:00,
2013-03-04 02:21:00,44.0,39.0,12.29,NNW,333,3.0,5.0,82,-99.99,,,-99.99,,2013-03-04 10:21:00,
2013-03-04 02:31:00,44.0,39.0,12.33,North,0,4.0,5.0,83,-99.99,,,-99.99,,2013-03-04 10:31:00,
2013-03-04 02:41:00,44.0,39.0,12.33,NNW,340,4.0,4.0,83,-99.99,,,-99.99,,2013-03-04 10:41:00,
2013-03-04 02:52:00,44.0,40.0,12.40,NNW,328,4.0,4.0,85,-99.99,,,-99.99,,2013-03-04 10:52:00,
2013-03-04 03:01:00,43.0,39.0,12.47,North,1,2.0,2.0,87,-99.99,,,-99.99,,2013-03-04 11:01:00,
2013-03-04 03:11:00,42.0,39.0,12.49,NNE,24,2.0,2.0,88,-99.99,,,-99.99,,2013-03-04 11:11:00,
2013-03-04 03:21:00,43.0,40.0,12.56,North,3,1.0,3.0,89,-99.99,,,-99.99,,2013-03-04 11:21:00,
2013-03-04 03:31:00,43.0,40.0,12.51,NNE,29,2.0,3.0,88,-99.99,,,-99.99,,2013-03-04 11:31:00,
2013-03-04 03:41:00,41.0,38.0,12.54,NE,54,2.0,3.0,90,-99.99,,,-99.99,,2013-03-04 11:41:00,
2013-03-04 03:52:00,42.0,40.0,12.62,NNW,330,1.0,6.0,91,-99.99,,,-99.99,,2013-03-04 11:52:00,
2013-03-04 04:01:00,42.0,40.0,12.62,NNW,330,1.0,6.0,91,-99.99,,,-99.99,,2013-03-04 12:01:00,
2013-03-04 04:11:00,42.0,40.0,12.64,West,266,2.0,6.0,92,-99.99,,,-99.99,,2013-03-04 12:11:00,
2013-03-04 04:22:00,41.0,39.0,12.70,NW,319,3.0,4.0,94,-99.99,,,-99.99,,2013-03-04 12:22:00,
2013-03-04 04:32:00,41.0,40.0,12.75,NW,308,3.0,6.0,95,-99.99,,,-99.99,,2013-03-04 12:32:00,
2013-03-04 04:42:00,42.0,41.0,12.80,WNW,293,3.0,10.0,96,-99.99,,,-99.99,,2013-03-04 12:42:00,
2013-03-04 04:52:00,43.0,42.0,12.81,WNW,300,4.0,8.0,97,-99.99,,,-99.99,,2013-03-04 12:52:00,
2013-03-04 05:02:00,43.0,42.0,12.81,WNW,297,4.0,7.0,97,-99.99,,,-99.99,,2013-03-04 13:02:00,
2013-03-04 05:11:00,43.0,42.0,12.80,West,281,4.0,5.0,96,-99.99,,,-99.99,,2013-03-04 13:11:00,
2013-03-04 05:21:00,43.0,42.0,12.81,WNW,286,3.0,8.0,96,-99.99,,,-99.99,,2013-03-04 13:21:00,
2013-03-04 05:31:00,43.0,42.0,12.81,West,274,4.0,5.0,96,-99.99,,,-99.99,,2013-03-04 13:31:00,
2013-03-04 05:41:00,43.0,42.0,12.84,WNW,285,3.0,6.0,97,-99.99,,,-99.99,,2013-03-04 13:41:00,
2013-03-04 05:51:00,43.0,42.0,12.83,NW,305,3.0,6.0,96,-99.99,,,-99.99,,2013-03-04 13:51:00,
2013-03-04 06:01:00,43.0,42.0,12.78,NW,312,2.0,10.0,95,-99.99,,,-99.99,,2013-03-04 14:01:00,
2013-03-04 06:11:00,44.0,42.0,12.71,NW,317,3.0,6.0,93,-99.99,,,-99.99,,2013-03-04 14:11:00,
2013-03-04 06:22:00,44.0,42.0,12.68,NW,326,3.0,4.0,93,-99.99,,,-99.99,,2013-03-04 14:22:00,
2013-03-04 06:31:00,44.0,42.0,12.69,NNW,341,2.0,3.0,93,-99.99,,,-99.99,,2013-03-04 14:31:00,
2013-03-04 06:41:00,44.0,42.0,12.67,NW,304,1.0,3.0,92,-99.99,,,-99.99,,2013-03-04 14:41:00,
2013-03-04 06:52:00,44.0,42.0,12.69,NW,314,1.0,2.0,93,-99.99,,,-99.99,,2013-03-04 14:52:00,
2013-03-04 07:01:00,44.0,42.0,12.67,NNE,23,1.0,3.0,93,-99.99,,,-99.99,,2013-03-04 15:01:00,
2013-03-04 07:11:00,44.0,42.0,12.65,NNE,32,1.0,4.0,92,-99.99,,,-99.99,,2013-03-04 15:11:00,
2013-03-04 07:21:00,44.0,42.0,12.63,NE,39,2.0,4.0,91,-99.99,,,-99.99,,2013-03-04 15:21:00,
2013-03-04 07:31:00,44.0,41.0,12.57,NE,50,2.0,4.0,89,-99.99,,,-99.99,,2013-03-04 15:31:00,
2013-03-04 07:41:00,45.0,41.0,12.45,ENE,78,3.0,5.0,86,-99.99,,,-99.99,,2013-03-04 15:41:00,
2013-03-04 07:51:00,46.0,41.0,12.38,East,99,3.0,4.0,84,-99.99,,,-99.99,,2013-03-04 15:51:00,
2013-03-04 08:02:00,46.0,41.0,12.26,East,80,2.0,4.0,81,-99.99,,,-99.99,,2013-03-04 16:02:00,
2013-03-04 08:11:00,47.0,41.0,12.19,SE,127,2.0,2.0,78,-99.99,,,-99.99,,2013-03-04 16:11:00,
2013-03-04 08:21:00,48.0,41.0,12.10,South,170,0.0,2.0,76,-99.99,,,-99.99,,2013-03-04 16:21:00,
2013-03-04 08:31:00,47.0,41.0,12.15,SW,223,1.0,5.0,78,-99.99,,,-99.99,,2013-03-04 16:31:00,
2013-03-04 08:41:00,47.0,41.0,12.22,SW,233,3.0,6.0,79,-99.99,,,-99.99,,2013-03-04 16:41:00,
2013-03-04 08:52:00,48.0,41.0,12.18,WSW,244,4.0,8.0,78,-99.99,,,-99.99,,2013-03-04 16:52:00,
2013-03-04 09:01:00,48.0,41.0,12.17,WSW,252,4.0,8.0,78,-99.99,,,-99.99,,2013-03-04 17:01:00,
2013-03-04 09:11:00,48.0,41.0,12.17,WSW,245,5.0,10.0,77,-99.99,,,-99.99,,2013-03-04 17:11:00,
2013-03-04 09:21:00,48.0,41.0,12.14,WSW,253,6.0,9.0,77,-99.99,,,-99.99,,2013-03-04 17:21:00,
2013-03-04 09:31:00,49.0,41.0,12.12,WSW,247,5.0,8.0,75,-99.99,,,-99.99,,2013-03-04 17:31:00,
2013-03-04 09:42:00,50.0,42.0,12.07,SW,225,5.0,7.0,74,-99.99,,,-99.99,,2013-03-04 17:42:00,
2013-03-04 09:52:00,50.0,42.0,12.02,WSW,245,4.0,8.0,73,-99.99,,,-99.99,,2013-03-04 17:52:00,
2013-03-04 10:01:00,50.0,41.0,12.00,SW,228,5.0,8.0,72,-99.99,,,-99.99,,2013-03-04 18:01:00,
2013-03-04 10:11:00,51.0,42.0,11.96,SW,217,5.0,9.0,71,-99.99,,,-99.99,,2013-03-04 18:11:00,
2013-03-04 10:21:00,51.0,42.0,11.92,SW,228,5.0,9.0,70,-99.99,,,-99.99,,2013-03-04 18:21:00,
2013-03-04 10:31:00,53.0,43.0,11.87,WSW,250,6.0,9.0,68,-99.99,,,-99.99,,2013-03-04 18:31:00,
2013-03-04 10:42:00,53.0,42.0,11.83,WSW,254,5.0,10.0,66,-99.99,,,-99.99,,2013-03-04 18:42:00,
2013-03-04 10:51:00,55.0,41.0,11.64,WSW,246,5.0,8.0,60,-99.99,,,-99.99,,2013-03-04 18:51:00,
2013-03-04 11:01:00,55.0,41.0,11.64,WSW,246,5.0,8.0,60,-99.99,,,-99.99,,2013-03-04 19:01:00,
2013-03-04 11:11:00,56.0,42.0,11.58,WSW,245,4.0,7.0,59,-99.99,,,-99.99,,2013-03-04 19:11:00,
2013-03-04 11:21:00,56.0,41.0,11.54,SW,236,4.0,9.0,57,-99.99,,,-99.99,,2013-03-04 19:21:00,
2013-03-04 11:31:00,57.0,42.0,11.53,WSW,256,6.0,14.0,57,-99.99,,,-99.99,,2013-03-04 19:31:00,
2013-03-04 11:41:00,57.0,42.0,11.52,WSW,258,8.0,11.0,57,-99.99,,,-99.99,,2013-03-04 19:41:00,
2013-03-04 11:51:00,57.0,41.0,11.50,West,260,7.0,12.0,56,-99.99,,,-99.99,,2013-03-04 19:51:00,
2013-03-04 12:01:00,56.0,42.0,11.58,WSW,245,7.0,14.0,59,-99.99,,,-99.99,,2013-03-04 20:01:00,
2013-03-04 12:11:00,56.0,43.0,11.65,WSW,254,8.0,13.0,61,-99.99,,,-99.99,,2013-03-04 20:11:00,
2013-03-04 12:21:00,56.0,43.0,-100.00,WSW,255,8.0,14.0,61,-99.99,,,-99.99,,2013-03-04 20:21:00,
2013-03-04 12:32:00,56.0,43.0,-100.00,WSW,256,7.0,14.0,61,-99.99,,,-99.99,,2013-03-04 20:32:00,
2013-03-04 12:41:00,56.0,43.0,-100.00,WSW,256,7.0,14.0,61,-99.99,,,-99.99,,2013-03-04 20:41:00,
2013-03-04 12:52:00,56.0,43.0,-100.00,WSW,250,8.0,14.0,62,-99.99,,,-99.99,,2013-03-04 20:52:00,
2013-03-04 13:01:00,56.0,43.0,-100.00,WSW,246,8.0,13.0,62,-99.99,,,-99.99,,2013-03-04 21:01:00,
2013-03-04 13:11:00,56.0,44.0,-100.00,WSW,251,8.0,12.0,63,-99.99,,,-99.99,,2013-03-04 21:11:00,
2013-03-04 13:21:00,56.0,43.0,-100.00,WSW,245,8.0,14.0,62,-99.99,,,-99.99,,2013-03-04 21:21:00,
2013-03-04 13:31:00,57.0,43.0,-100.00,WSW,246,6.0,14.0,60,-99.99,,,-99.99,,2013-03-04 21:31:00,
2013-03-04 13:42:00,57.0,43.0,-100.00,West,261,8.0,13.0,60,-99.99,,,-99.99,,2013-03-04 21:42:00,
2013-03-04 13:52:00,57.0,43.0,-100.00,West,260,8.0,14.0,60,-99.99,,,-99.99,,2013-03-04 21:52:00,
2013-03-04 14:01:00,57.0,43.0,-100.00,WSW,254,7.0,12.0,60,-99.99,,,-99.99,,2013-03-04 22:01:00,
2013-03-04 14:11:00,57.0,44.0,-100.00,WSW,258,7.0,14.0,62,-99.99,,,-99.99,,2013-03-04 22:11:00,
2013-03-04 14:21:00,58.0,45.0,-100.00,WSW,253,8.0,14.0,61,-99.99,,,-99.99,,2013-03-04 22:21:00,
2013-03-04 14:31:00,58.0,45.0,-100.00,West,260,7.0,13.0,61,-99.99,,,-99.99,,2013-03-04 22:31:00,
2013-03-04 14:42:00,58.0,44.0,-100.00,WSW,255,7.0,15.0,60,-99.99,,,-99.99,,2013-03-04 22:42:00,
2013-03-04 14:51:00,58.0,45.0,-100.00,WSW,253,8.0,12.0,62,-99.99,,,-99.99,,2013-03-04 22:51:00,
2013-03-04 15:01:00,58.0,45.0,-100.00,WSW,253,8.0,12.0,62,-99.99,,,-99.99,,2013-03-04 23:01:00,
2013-03-04 15:11:00,58.0,45.0,-100.00,WSW,254,7.0,13.0,62,-99.99,,,-99.99,,2013-03-04 23:11:00,
2013-03-04 15:21:00,58.0,45.0,-100.00,WSW,258,7.0,12.0,62,-99.99,,,-99.99,,2013-03-04 23:21:00,
2013-03-04 15:31:00,58.0,45.0,-100.00,WSW,256,6.0,13.0,63,-99.99,,,-99.99,,2013-03-04 23:31:00,
2013-03-04 15:41:00,58.0,45.0,-100.00,WSW,252,6.0,10.0,63,-99.99,,,-99.99,,2013-03-04 23:41:00,
2013-03-04 15:52:00,58.0,45.0,-100.00,WSW,252,6.0,10.0,63,-99.99,,,-99.99,,2013-03-04 23:52:00,
2013-03-04 16:01:00,59.0,46.0,-100.00,West,265,6.0,10.0,62,-99.99,,,-99.99,,2013-03-05 00:01:00,
2013-03-04 16:11:00,59.0,46.0,-100.00,West,265,6.0,10.0,62,-99.99,,,-99.99,,2013-03-05 00:11:00,
2013-03-04 16:21:00,59.0,46.0,-100.00,West,262,6.0,10.0,62,-99.99,,,-99.99,,2013-03-05 00:21:00,
2013-03-04 16:32:00,58.0,46.0,-100.00,West,263,5.0,9.0,64,-99.99,,,-99.99,,2013-03-05 00:32:00,
2013-03-04 16:41:00,58.0,46.0,-100.00,WSW,258,6.0,10.0,64,-99.99,,,-99.99,,2013-03-05 00:41:00,
2013-03-04 16:51:00,58.0,46.0,-100.00,West,273,5.0,8.0,65,-99.99,,,-99.99,,2013-03-05 00:51:00,
2013-03-04 17:01:00,58.0,46.0,-100.00,West,272,4.0,9.0,65,-99.99,,,-99.99,,2013-03-05 01:01:00,
2013-03-04 17:11:00,57.0,46.0,-100.00,West,265,5.0,9.0,67,-99.99,,,-99.99,,2013-03-05 01:11:00,
2013-03-04 17:21:00,58.0,47.0,-100.00,West,266,4.0,7.0,67,-99.99,,,-99.99,,2013-03-05 01:21:00,
2013-03-04 17:32:00,58.0,47.0,-100.00,WNW,285,4.0,7.0,67,-99.99,,,-99.99,,2013-03-05 01:32:00,
2013-03-04 17:41:00,58.0,47.0,-100.00,WNW,285,4.0,7.0,67,-99.99,,,-99.99,,2013-03-05 01:41:00,
2013-03-04 17:51:00,56.0,46.0,-100.00,WSW,253,3.0,5.0,70,-99.99,,,-99.99,,2013-03-05 01:51:00,
2013-03-04 18:01:00,55.0,47.0,-100.00,West,259,3.0,7.0,73,-99.99,,,-99.99,,2013-03-05 02:01:00,
2013-03-04 18:11:00,54.0,46.0,-100.00,WSW,257,4.0,8.0,75,-99.99,,,-99.99,,2013-03-05 02:11:00,
2013-03-04 18:21:00,54.0,47.0,-100.00,West,268,4.0,8.0,76,-99.99,,,-99.99,,2013-03-05 02:21:00,
2013-03-04 18:31:00,53.0,47.0,-100.00,West,268,4.0,8.0,79,-99.99,,,-99.99,,2013-03-05 02:31:00,
2013-03-04 18:41:00,52.0,46.0,-100.00,WNW,285,4.0,8.0,81,-99.99,,,-99.99,,2013-03-05 02:41:00,
2013-03-04 18:52:00,51.0,46.0,-100.00,NW,318,4.0,5.0,84,-99.99,,,-99.99,,2013-03-05 02:52:00,
2013-03-04 19:01:00,50.0,46.0,-100.00,WNW,298,3.0,4.0,87,-99.99,,,-99.99,,2013-03-05 03:01:00,
2013-03-04 19:11:00,50.0,47.0,-100.00,West,272,2.0,4.0,88,-99.99,,,-99.99,,2013-03-05 03:11:00,
2013-03-04 19:21:00,49.0,46.0,-100.00,WSW,256,1.0,3.0,90,-99.99,,,-99.99,,2013-03-05 03:21:00,
2013-03-04 19:31:00,48.0,46.0,-100.00,SW,236,2.0,4.0,92,-99.99,,,-99.99,,2013-03-05 03:31:00,
2013-03-04 19:41:00,47.0,45.0,-100.00,NNW,343,2.0,4.0,93,-99.99,,,-99.99,,2013-03-05 03:41:00,
2013-03-04 19:51:00,47.0,45.0,-100.00,NNE,17,2.0,5.0,93,-99.99,,,-99.99,,2013-03-05 03:51:00,
2013-03-04 20:01:00,47.0,45.0,-100.00,NNE,33,2.0,7.0,94,-99.99,,,-99.99,,2013-03-05 04:01:00,
2013-03-04 20:11:00,46.0,45.0,-100.00,NE,55,3.0,3.0,95,-99.99,,,-99.99,,2013-03-05 04:11:00,
2013-03-04 20:21:00,47.0,46.0,-100.00,NE,44,1.0,7.0,96,-99.99,,,-99.99,,2013-03-05 04:21:00,
2013-03-04 20:31:00,48.0,46.0,-100.00,NNE,26,3.0,7.0,93,-99.99,,,-99.99,,2013-03-05 04:31:00,
2013-03-04 20:41:00,48.0,45.0,-100.00,WSW,255,3.0,3.0,90,-99.99,,,-99.99,,2013-03-05 04:41:00,
2013-03-04 20:51:00,48.0,45.0,-100.00,SW,230,2.0,3.0,89,-99.99,,,-99.99,,2013-03-05 04:51:00,
2013-03-04 21:01:00,48.0,45.0,-100.00,NNE,30,1.0,3.0,90,-99.99,,,-99.99,,2013-03-05 05:01:00,
2013-03-04 21:11:00,48.0,45.0,-100.00,East,79,2.0,4.0,89,-99.99,,,-99.99,,2013-03-05 05:11:00,
2013-03-04 21:22:00,49.0,44.0,-100.00,ENE,60,1.0,4.0,84,-99.99,,,-99.99,,2013-03-05 05:22:00,
2013-03-04 21:31:00,49.0,43.0,-100.00,South,182,1.0,4.0,81,-99.99,,,-99.99,,2013-03-05 05:31:00,
2013-03-04 21:41:00,49.0,43.0,-100.00,SSE,162,1.0,4.0,80,-99.99,,,-99.99,,2013-03-05 05:41:00,
2013-03-04 21:52:00,48.0,42.0,-100.00,East,84,2.0,4.0,79,-99.99,,,-99.99,,2013-03-05 05:52:00,
2013-03-04 22:01:00,47.0,42.0,-100.00,ENE,64,2.0,4.0,82,-99.99,,,-99.99,,2013-03-05 06:01:00,
2013-03-04 22:11:00,46.0,41.0,-100.00,ENE,65,2.0,5.0,84,-99.99,,,-99.99,,2013-03-05 06:11:00,
2013-03-04 22:21:00,46.0,41.0,-100.00,ENE,69,3.0,6.0,84,-99.99,,,-99.99,,2013-03-05 06:21:00,
2013-03-04 22:31:00,47.0,41.0,-100.00,NE,48,4.0,8.0,80,-99.99,,,-99.99,,2013-03-05 06:31:00,
2013-03-04 22:41:00,47.0,41.0,-100.00,NE,48,4.0,8.0,80,-99.99,,,-99.99,,2013-03-05 06:41:00,
2013-03-04 22:52:00,50.0,38.0,-100.00,NNE,12,5.0,6.0,64,-99.99,,,-99.99,,2013-03-05 06:52:00,
2013-03-04 23:01:00,50.0,38.0,-100.00,NNE,12,5.0,6.0,64,-99.99,,,-99.99,,2013-03-05 07:01:00,
2013-03-04 23:11:00,50.0,38.0,-100.00,NE,49,4.0,5.0,62,-99.99,,,-99.99,,2013-03-05 07:11:00,
2013-03-04 23:21:00,51.0,37.0,-100.00,ENE,58,3.0,6.0,58,-99.99,,,-99.99,,2013-03-05 07:21:00,
2013-03-04 23:31:00,51.0,37.0,-100.00,NE,51,5.0,7.0,58,-99.99,,,-99.99,,2013-03-05 07:31:00,
2013-03-04 23:41:00,51.0,37.0,-100.00,NE,51,5.0,7.0,58,-99.99,,,-99.99,,2013-03-05 07:41:00,
2013-03-04 23:51:00,51.0,36.0,-100.00,NE,56,5.0,7.0,56,-99.99,,,-99.99,,2013-03-05 07:51:00,